Starlink 2220

operational
NORAD ID: 48570 Int'l Des: 2021-041 Owner: SPXS Country: US Constellation: starlink
LEOCIRCULARSTARLINK_TYPE

About Starlink 2220

Description loading...

Live Position

Loading 3D Globe...

Upcoming Passes

Altitude History

Altitude vs Time

uPlot chart will show altitude changes over time

Two-Line Element Set

1 48570U 21041T 25350.75154282 .00017704 00000-0 12066-2 0 9997
2 48570 53.0536 153.9411 0001461 105.0075 255.1076 15.06333080252556
Epoch: Dec 16, 2025 • Age: 13 hours

Current Status

Altitude 550.4 km
Velocity 7.59 km/s
Sub-Earth Point -9.16°S, 42.4°W
Launch Date May 15, 2021
Age 4.5 years
Type internet

Technical Details

Classification Payload
Mass 260.00 kg
Dry Mass 248.00 kg
Total Mass 260.00 kg
Length 0.20 m
Diameter 2.80 m
Span 9.00 m
Shape Box + pan
Manufacturer SPXS
Bus Type Starlink
Phase Status In Orbit
Owner/State SPXS/US

Large Constellations

Loading constellations...